| time (UTC) | temp C | wind direction | speed KPH | gust KPH | rain 1hr cm | rain 24hr cm | rain mn cm | humidity % | barometer mb |
| 20260506124522 | 12 | 138 | 8.0 | 16.1 | 0.30 | 0.41 | 0.41 | 98 | 1008.0 |
| 20260506123517 | 12 | 217 | 12.9 | 14.5 | 0.18 | 0.36 | 0.36 | 98 | 1008.0 |
| 20260506122517 | 11 | 165 | 3.2 | 8.0 | 0.13 | 0.33 | 0.33 | 99 | 1008.0 |
| 20260506121513 | 11 | 199 | 6.4 | 9.7 | 0.18 | 0.30 | 0.30 | 99 | 1007.8 |
| 20260506120513 | 11 | 218 | 6.4 | 8.0 | 0.13 | 0.28 | 0.28 | 99 | 1007.7 |
| 20260506115508 | 11 | 153 | 3.2 | 6.4 | 0.05 | 0.25 | 0.25 | 99 | 1007.7 |
| 20260506114503 | 11 | 142 | 3.2 | 4.8 | 0.05 | 0.25 | 0.25 | 99 | 1007.7 |
| 20260506113459 | 11 | 173 | 3.2 | 6.4 | 0.13 | 0.23 | 0.23 | 99 | 1007.9 |
| 20260506112459 | 11 | 186 | 3.2 | 6.4 | 0.05 | 0.23 | 0.23 | 99 | 1007.9 |
| 20260506111454 | 11 | 210 | 3.2 | 6.4 | 0.13 | 0.20 | 0.20 | 98 | 1007.8 |
| 20260506110454 | 11 | 189 | 3.2 | 6.4 | 0.13 | 0.18 | 0.18 | 98 | 1008.1 |
| 20260506105453 | 11 | 201 | 3.2 | 6.4 | 0.13 | 0.18 | 0.18 | 97 | 1007.8 |
| 20260506104448 | 11 | 256 | 1.6 | 3.2 | 0.13 | 0.15 | 0.15 | 97 | 1008.0 |
| 20260506103443 | 11 | 106 | 3.2 | 4.8 | 0.00 | 0.13 | 0.13 | 97 | 1007.8 |
| 20260506102438 | 11 | 69 | 3.2 | 4.8 | 0.05 | 0.13 | 0.13 | 96 | 1007.9 |
| 20260506101437 | 11 | 356 | 4.8 | 4.8 | 0.00 | 0.13 | 0.13 | 95 | 1007.8 |
| 20260506100433 | 11 | 164 | 4.8 | 8.0 | 0.13 | 0.10 | 0.10 | 95 | 1007.7 |
| 20260506095429 | 12 | 143 | 3.2 | 6.4 | 0.05 | 0.10 | 0.10 | 92 | 1007.6 |
| 20260506094429 | 12 | 110 | 1.6 | 8.0 | 0.05 | 0.08 | 0.08 | 90 | 1007.5 |
| 20260506093424 | 12 | 139 | 4.8 | 6.4 | 0.05 | 0.08 | 0.08 | 90 | 1007.5 |
| 20260506092420 | 12 | 195 | 3.2 | 9.7 | 0.05 | 0.05 | 0.05 | 87 | 1007.5 |
| 20260506091420 | 12 | 204 | 4.8 | 9.7 | 0.05 | 0.05 | 0.05 | 87 | 1007.9 |
| 20260506090415 | 12 | 131 | 1.6 | 4.8 | 0.00 | 0.05 | 0.05 | 89 | 1007.6 |
| 20260506085414 | 12 | 185 | 0.0 | 3.2 | 0.05 | 0.05 | 0.05 | 89 | 1007.9 |
| 20260506084413 | 13 | 185 | 3.2 | 6.4 | 0.13 | 0.03 | 0.03 | 82 | 1007.8 |
| 20260506083413 | 13 | 173 | 6.4 | 8.0 | 0.00 | 0.00 | 0.00 | 76 | 1008.1 |
| 20260506082413 | 14 | 189 | 4.8 | 9.7 | 0.00 | 0.00 | 0.00 | 75 | 1008.1 |
| 20260506081413 | 15 | 150 | 4.8 | 9.7 | 0.05 | 0.00 | 0.00 | 74 | 1008.1 |
| 20260506080412 | 15 | 175 | 0.0 | 12.9 | 0.00 | 0.00 | 0.00 | 70 | 1008.4 |
| 20260506073402 | 16 | 185 | 8.0 | 16.1 | 0.00 | 0.00 | 0.00 | 59 | 1007.6 |
| 20260506072402 | 16 | 204 | 6.4 | 8.0 | 0.00 | 0.00 | 0.00 | 59 | 1007.3 |
| 20260506071358 | 16 | 215 | 11.3 | 12.9 | 0.00 | 0.00 | 0.00 | 60 | 1007.6 |
| 20260506070357 | 15 | 171 | 4.8 | 11.3 | 0.00 | 0.00 | 0.00 | 68 | 1007.9 |
| 20260506062340 | 12 | 109 | 0.0 | 3.2 | 0.00 | 0.00 | 0.00 | 96 | 1007.9 |
| 20260506061339 | 12 | 113 | 0.0 | 4.8 | 0.00 | 0.00 | 0.00 | 96 | 1008.6 |
| 20260506060335 | 12 | 105 | 0.0 | 4.8 | 0.00 | 0.00 | 0.00 | 96 | 1008.6 |
| 20260506051324 | 13 | 66 | 4.8 | 6.4 | 0.00 | 0.00 | 0.00 | 94 | 1009.2 |
| 20260506050319 | 13 | 337 | 4.8 | 4.8 | 0.00 | 0.00 | 0.00 | 93 | 1009.4 |
| 20260506044313 | 13 | 36 | 4.8 | 6.4 | 0.00 | 0.00 | 0.00 | 90 | 1009.5 |
| 20260506043313 | 13 | 21 | 3.2 | 4.8 | 0.00 | 0.00 | 0.00 | 87 | 1009.3 |
| 20260506042310 | 14 | 54 | 4.8 | 8.0 | 0.00 | 0.00 | 0.00 | 85 | 1009.1 |
| 20260506041310 | 14 | 44 | 11.3 | 12.9 | 0.00 | 0.00 | 0.00 | 81 | 1009.1 |
| 20260506040305 | 15 | 39 | 12.9 | 14.5 | 0.00 | 0.00 | 0.00 | 77 | 1009.3 |
| 20260506035306 | 16 | 183 | 0.0 | 3.2 | 0.00 | 0.00 | 0.00 | 70 | 1009.5 |
| 20260506034259 | 17 | 137 | 1.6 | 4.8 | 0.00 | 0.00 | 0.00 | 69 | 1009.4 |
| 20260506033258 | 17 | 149 | 6.4 | 9.7 | 0.00 | 0.00 | 0.00 | 68 | 1009.3 |
| 20260506032258 | 17 | 168 | 3.2 | 6.4 | 0.00 | 0.00 | 0.00 | 68 | 1009.5 |
| 20260506031258 | 16 | 174 | 3.2 | 4.8 | 0.00 | 0.00 | 0.00 | 69 | 1009.4 |
| 20260506030254 | 16 | 150 | 3.2 | 6.4 | 0.00 | 0.00 | 0.00 | 68 | 1009.3 |
| 20260506025253 | 17 | 200 | 4.8 | 9.7 | 0.00 | 0.00 | 0.00 | 67 | 1009.5 |
| 20260506024252 | 17 | 144 | 4.8 | 8.0 | 0.00 | 0.00 | 0.00 | 68 | 1009.3 |
| 20260506023251 | 17 | 201 | 4.8 | 6.4 | 0.00 | 0.00 | 0.00 | 67 | 1009.5 |
| 20260506022246 | 17 | 170 | 3.2 | 8.0 | 0.00 | 0.00 | 0.00 | 66 | 1009.6 |
| 20260506021246 | 17 | 166 | 3.2 | 11.3 | 0.00 | 0.00 | 0.00 | 65 | 1009.5 |
| 20260506020246 | 17 | 193 | 4.8 | 6.4 | 0.00 | 0.00 | 0.00 | 64 | 1009.4 |
| 20260506015241 | 17 | 186 | 3.2 | 4.8 | 0.00 | 0.00 | 0.00 | 65 | 1009.4 |
| 20260506014240 | 18 | 151 | 3.2 | 12.9 | 0.00 | 0.00 | 0.00 | 62 | 1009.2 |
| 20260506013240 | 18 | 151 | 4.8 | 8.0 | 0.00 | 0.00 | 0.00 | 62 | 1009.2 |
| 20260506012239 | 18 | 172 | 3.2 | 12.9 | 0.00 | 0.00 | 0.00 | 61 | 1009.4 |
| 20260506011238 | 18 | 195 | 8.0 | 8.0 | 0.00 | 0.00 | 0.00 | 60 | 1009.2 |
| 20260506010233 | 19 | 211 | 1.6 | 12.9 | 0.00 | 0.00 | 0.00 | 59 | 1009.1 |
| 20260506005233 | 19 | 176 | 4.8 | 11.3 | 0.00 | 0.00 | 0.00 | 58 | 1009.0 |
| 20260506004232 | 19 | 175 | 4.8 | 9.7 | 0.00 | 0.00 | 0.00 | 58 | 1009.0 |
| 20260506003231 | 19 | 184 | 1.6 | 6.4 | 0.00 | 0.00 | 0.00 | 59 | 1009.0 |
| 20260506002229 | 18 | 199 | 9.7 | 14.5 | 0.00 | 0.00 | 0.00 | 58 | 1008.5 |
| 20260506001229 | 19 | 150 | 3.2 | 6.4 | 0.00 | 0.00 | 0.00 | 58 | 1008.6 |
| 20260506000223 | 19 | 193 | 4.8 | 6.4 | 0.00 | 0.00 | 0.00 | 57 | 1008.4 |
| 20260505235224 | 20 | 178 | 3.2 | 9.7 | 0.00 | 0.00 | 0.00 | 57 | 1008.7 |
| 20260505234223 | 20 | 211 | 9.7 | 20.9 | 0.00 | 0.00 | 0.00 | 56 | 1008.8 |
| 20260505233218 | 20 | 210 | 6.4 | 8.0 | 0.00 | 0.00 | 0.00 | 56 | 1008.6 |
| 20260505232218 | 20 | 225 | 6.4 | 11.3 | 0.00 | 0.00 | 0.00 | 55 | 1008.5 |
| 20260505231214 | 20 | 227 | 8.0 | 9.7 | 0.00 | 0.00 | 0.00 | 53 | 1008.5 |
| 20260505230213 | 20 | 306 | 4.8 | 12.9 | 0.00 | 0.00 | 0.00 | 52 | 1008.3 |
| 20260505225212 | 21 | 251 | 4.8 | 9.7 | 0.00 | 0.00 | 0.00 | 51 | 1008.4 |
| 20260505224212 | 21 | 227 | 4.8 | 12.9 | 0.00 | 0.00 | 0.00 | 50 | 1008.1 |
| 20260505223211 | 21 | 213 | 12.9 | 20.9 | 0.00 | 0.00 | 0.00 | 50 | 1008.3 |
| 20260505222209 | 21 | 207 | 9.7 | 20.9 | 0.00 | 0.00 | 0.00 | 49 | 1008.0 |
| 20260505221209 | 21 | 213 | 3.2 | 16.1 | 0.00 | 0.00 | 0.00 | 49 | 1007.9 |
| 20260505220204 | 21 | 195 | 6.4 | 16.1 | 0.00 | 0.00 | 0.00 | 48 | 1007.8 |
| 20260505215159 | 21 | 205 | 9.7 | 17.7 | 0.00 | 0.00 | 0.00 | 49 | 1007.6 |
| 20260505214154 | 21 | 227 | 11.3 | 14.5 | 0.00 | 0.00 | 0.00 | 47 | 1007.6 |
| 20260505213153 | 22 | 235 | 12.9 | 29.0 | 0.00 | 0.00 | 0.00 | 45 | 1007.6 |
| 20260505212153 | 22 | 209 | 24.1 | 37.0 | 0.00 | 0.00 | 0.00 | 45 | 1007.4 |
| 20260505211153 | 22 | 221 | 11.3 | 32.2 | 0.00 | 0.00 | 0.00 | 44 | 1007.1 |
| 20260505210152 | 22 | 212 | 11.3 | 37.0 | 0.00 | 0.00 | 0.00 | 43 | 1007.1 |
| 20260505205148 | 23 | 180 | 8.0 | 14.5 | 0.00 | 0.00 | 0.00 | 45 | 1007.0 |
| 20260505204148 | 23 | 166 | 3.2 | 30.6 | 0.00 | 0.00 | 0.00 | 46 | 1007.2 |
| 20260505203148 | 22 | 171 | 6.4 | 27.4 | 0.00 | 0.00 | 0.00 | 47 | 1006.9 |
| 20260505202146 | 22 | 183 | 9.7 | 29.0 | 0.00 | 0.00 | 0.00 | 48 | 1007.1 |
| 20260505201140 | 22 | 230 | 8.0 | 20.9 | 0.00 | 0.00 | 0.00 | 49 | 1007.1 |
| 20260505200135 | 22 | 210 | 11.3 | 16.1 | 0.00 | 0.00 | 0.00 | 51 | 1007.1 |
| 20260505195134 | 22 | 165 | 9.7 | 30.6 | 0.00 | 0.00 | 0.00 | 52 | 1007.2 |
| 20260505194133 | 21 | 222 | 19.3 | 32.2 | 0.00 | 0.00 | 0.00 | 50 | 1007.2 |
| 20260505193133 | 21 | 211 | 24.1 | 29.0 | 0.00 | 0.00 | 0.00 | 49 | 1007.1 |
| 20260505192128 | 22 | 215 | 27.4 | 49.9 | 0.00 | 0.00 | 0.00 | 48 | 1006.8 |
| 20260505191124 | 22 | 210 | 19.3 | 27.4 | 0.00 | 0.00 | 0.00 | 46 | 1006.6 |
| 20260505190121 | 22 | 176 | 6.4 | 30.6 | 0.00 | 0.00 | 0.00 | 48 | 1006.7 |
| 20260505185120 | 23 | 164 | 9.7 | 22.5 | 0.00 | 0.00 | 0.00 | 46 | 1006.8 |
| 20260505184119 | 22 | 210 | 20.9 | 29.0 | 0.00 | 0.00 | 0.00 | 48 | 1007.2 |
| 20260505183114 | 22 | 191 | 8.0 | 35.4 | 0.00 | 0.00 | 0.00 | 51 | 1007.3 |
| 20260505182112 | 23 | 219 | 12.9 | 22.5 | 0.00 | 0.00 | 0.00 | 51 | 1007.8 |
| 20260505181112 | 22 | 211 | 17.7 | 33.8 | 0.00 | 0.00 | 0.00 | 50 | 1007.7 |
| 20260505180111 | 22 | 208 | 6.4 | 30.6 | 0.00 | 0.00 | 0.00 | 51 | 1007.9 |
| 20260505175109 | 21 | 208 | 9.7 | 30.6 | 0.00 | 0.00 | 0.00 | 52 | 1008.0 |
| 20260505174108 | 22 | 198 | 29.0 | 32.2 | 0.00 | 0.00 | 0.00 | 52 | 1008.1 |
| 20260505173108 | 22 | 195 | 22.5 | 25.7 | 0.00 | 0.00 | 0.00 | 51 | 1008.4 |
| 20260505172102 | 21 | 215 | 22.5 | 27.4 | 0.00 | 0.00 | 0.00 | 55 | 1008.5 |
| 20260505171100 | 22 | 176 | 9.7 | 27.4 | 0.00 | 0.00 | 0.00 | 53 | 1008.0 |
| 20260505170059 | 22 | 232 | 11.3 | 20.9 | 0.00 | 0.00 | 0.00 | 54 | 1008.0 |
| 20260505165056 | 21 | 238 | 9.7 | 37.0 | 0.00 | 0.00 | 0.00 | 57 | 1007.7 |
| 20260505164055 | 22 | 220 | 20.9 | 29.0 | 0.00 | 0.00 | 0.00 | 55 | 1008.4 |
| 20260505163050 | 21 | 225 | 29.0 | 37.0 | 0.00 | 0.00 | 0.00 | 56 | 1008.5 |
| 20260505162046 | 21 | 196 | 14.5 | 20.9 | 0.00 | 0.00 | 0.00 | 57 | 1008.9 |
| 20260505161046 | 21 | 171 | 8.0 | 16.1 | 0.00 | 0.00 | 0.00 | 57 | 1008.9 |
| 20260505153038 | 21 | 188 | 9.7 | 30.6 | 0.00 | 0.00 | 0.00 | 59 | 1009.0 |
| 20260505152035 | 21 | 191 | 11.3 | 30.6 | 0.00 | 0.00 | 0.00 | 59 | 1009.0 |
| 20260505151034 | 20 | 211 | 11.3 | 20.9 | 0.00 | 0.00 | 0.00 | 60 | 1009.2 |